{"data":{"norad_id":53230,"epoch":"2026-05-25T03:48:45.642240Z","epoch_age_seconds":71764,"freshness":"FRESH","line1":"1 53230U 22084AT  26145.15886160 -.00000120  00000+0 -42568-5 0  9996","line2":"2 53230  97.4470 206.2575 0001732 128.4755 231.6627 15.05654413210899","mean_motion":15.05654413,"eccentricity":0.0001732,"inclination_deg":97.447,"raan_deg":206.2575,"arg_perigee_deg":128.4755,"mean_anomaly_deg":231.6627,"bstar":-4.2568e-6,"rev_number":21089,"period_min":95.639476600133,"perigee_km":548.29775131641,"apogee_km":550.69748394796,"semimajor_km":6927.6346176322,"source":"CELESTRAK","updated_at":"2026-05-25T13:38:17.358215Z"}}